This is the latest recevied weather packets stored in our database for station/object K7TUS-6. If no packets are shown the sender has not sent any weather packets the latest 10 day(s).
| Time | Temp. | Humidity | Pressure | Rain* | Wind** | Luminosity | Snow |
|---|---|---|---|---|---|---|---|
| 1777707009 | 7.78° C | 7% | 983.7 hPa | - | - | - | - |
| 1777706708 | 7.78° C | 7% | 984.4 hPa | - | - | - | - |
| 1777706108 | 7.78° C | 9% | 983 hPa | - | - | - | - |
| 1777705807 | 7.78° C | 8% | 984.2 hPa | - | - | - | - |
| 1777705507 | 7.78° C | 8% | 983.8 hPa | - | - | - | - |
| 1777704906 | 7.78° C | 7% | 983.3 hPa | - | - | - | - |
| 1777704606 | 7.78° C | 7% | 983.8 hPa | - | - | - | - |
| 1777704305 | 7.78° C | 7% | 982.9 hPa | - | - | - | - |
| 1777703704 | 7.78° C | 8% | 983.9 hPa | - | - | - | - |
| 1777703404 | 8.33° C | 7% | 983.7 hPa | - | - | - | - |
| 1777703109 | 7.78° C | 9% | 984.4 hPa | - | - | - | - |
| 1777702809 | 7.78° C | 11% | 983.7 hPa | - | - | - | - |
| 1777702208 | 7.78° C | 12% | 983.5 hPa | - | - | - | - |
| 1777701607 | 7.22° C | 15% | 983.7 hPa | - | - | - | - |
| 1777701307 | 7.78° C | 16% | 983.6 hPa | - | - | - | - |
| 1777701006 | 7.78° C | 16% | 983.8 hPa | - | - | - | - |
| 1777700706 | 7.78° C | 16% | 983.2 hPa | - | - | - | - |
| 1777700405 | 7.22° C | 17% | 983.1 hPa | - | - | - | - |
| 1777700105 | 7.78° C | 17% | 983.2 hPa | - | - | - | - |
| 1777699804 | 7.78° C | 15% | 983.6 hPa | - | - | - | - |
| 1777699504 | 7.78° C | 16% | 983.8 hPa | - | - | - | - |
| 1777699203 | 7.78° C | 16% | 983.4 hPa | - | - | - | - |
| 1777698909 | 7.78° C | 16% | 983.5 hPa | - | - | - | - |
| 1777698608 | 8.33° C | 15% | 983.4 hPa | - | - | - | - |
| 1777698308 | 8.33° C | 13% | 982.5 hPa | - | - | - | - |
* Rain since midnight (hover to see other rain measurements)
** Current wind speed in m/s (hover to see current wind gust speed)